Location: Martley
(52.2333°N, 2.3667°W)
Time: 20:02:11
(UTC+00:00)

ATLAS CENTAUR R/B - Pass Details

Date: 11 December 2019
Orbit: 454 x 694 km, 64.6° (Epoch: 15 January)

Event Time Altitude Azimuth Distance (km) Brightness Sun altitude
Exits shadow 04:30:09 17° 38° (NE) 1,536 3.9 -32.0°
Drops below altitude 10° 04:31:49 10° 60° (ENE) 1,885 4.7 -31.7°
Sets 04:34:31 0° 79° (E) 2,729 6.0 -31.3°
